Regional Weather Roundup
Issued by NWS

Home | Current Version | Previous Version | Text Only | Print | Product List | Glossary On
Versions: 1 2 3 4 5 6 7 8 9 10 11 12 13 14 15 16 17 18 19 20 21 22 23 24 25 26 27 28 29 30 31 32 33 34 35 36 37 38 39 40 41 42 43 44 45 46 47 48 49 50
000
ASUS44 KLIX 170210
RWRLA
LOUISIANA WEATHER ROUNDUP
NATIONAL WEATHER SERVICE NEW ORLEANS LA
900 PM CDT TUE SEP 16 2014

NOTE: "FAIR" INDICATES FEW OR NO CLOUDS BELOW 12,000 FEET WITH NO
      SIGNIFICANT WEATHER AND/OR OBSTRUCTIONS TO VISIBILITY.
      SKY/WX - SKY CONDITION AND SIGNIFICANT WEATHER.
      TMP - AIR TEMPERATURE.    DP   - DEWPOINT TEMPERATURE.
      RH  - RELATIVE HUMIDITY.  PRES - PRESSURE.
      HX  - HEAT INDEX.         WCI  - WIND CHILL INDEX.

*  THESE STATIONS ARE NOT NWS OR FAA STATIONS AND ARE NOT UNDER
   NWS QUALITY CONTROL.

LAZ040-048-061>063-065-066-069-170300-
SOUTHEAST LOUISIANA

CITY           SKY/WX    TMP DP  RH WIND       PRES   REMARKS
N.O. AUDUBON     N/A     76  75  99 MISG        N/A
N.O. INTL ARPT CLOUDY    77  74  90 CALM      30.00R
N.O. LAKEFRONT CLOUDY    79  75  87 W7        30.01R
N.O. DOWNTOWN* FAIR      79  72  78 CALM      30.01R
SLIDELL        CLOUDY    75  72  90 NE3       30.01R
BATON ROUGE    CLOUDY    73  71  93 W3        30.02R
BOOTHVILLE     CLOUDY    78  76  93 NW5       30.01R
BELLE CHASSE   CLOUDY    77  73  87 NE5       30.00R
BOGALUSA*      CLOUDY    76  72  87 CALM      30.03R
GALLIANO*      NOT AVBL
NEW ROADS*     DRIZZLE   73  73  97 CALM      30.04R
GONZALES*      FAIR      72  72 100 NW3       30.00S
HAMMOND*       CLOUDY    75  72  88 N5        30.05R
HOUMA*         LGT RAIN  77  73  87 NW3       30.00R
PORT FOURCHON* NOT AVBL

$$

LAZ041-044-053-054-170300-
SOUTHWEST LOUISIANA

CITY           SKY/WX    TMP DP  RH WIND       PRES   REMARKS
LAKE CHARLES   CLOUDY    75  73  93 E7        30.02R
LAFAYETTE      RAIN      74  73  97 CALM      30.02F
PATTERSON      CLOUDY    72  72 100 NW6       30.03S
SALT POINT       N/A     77  74  90 VRB5      30.00S
NEW IBERIA     LGT RAIN  76  73  91 NW3       30.02F
CHENAULT AIRPK CLEAR     75  73  94 E3        30.05R

$$

LAZ027-028-170300-
CENTRAL LOUISIANA

CITY           SKY/WX    TMP DP  RH WIND       PRES   REMARKS
FORT POLK      CLOUDY    73  72  96 CALM      30.04R
ALEXANDRIA INT MOCLDY    75  72  90 S6        30.03R
ALEXANDRIA     CLOUDY    76  70  82 S6        30.05R

$$

LAZ001-002-170300-
NORTHWEST LOUISIANA

CITY           SKY/WX    TMP DP  RH WIND       PRES   REMARKS
SHREVEPORT     MOCLDY    80  71  74 S5        30.01R
BARKSDALE AFB  PTCLDY    78  70  78 E3        30.01R
DTN SHREVEPORT PTCLDY    79  70  74 E3        30.01R

$$

LAZ014-016-170300-
NORTHEAST LOUISIANA

CITY           SKY/WX    TMP DP  RH WIND       PRES   REMARKS
MONROE         PTCLDY    77  72  84 CALM      30.02R
TALLULAH       CLOUDY    75  71  87 CALM      30.01R

$$



USA.gov is the U.S. government's official web portal to all federal, state and local government web resources and services.